| time (UTC) | temp C | wind direction | speed KPH | gust KPH | rain 1hr cm | rain 24hr cm | rain mn cm | humidity % | barometer mb |
| 20260508083022 | 6 | 214 | 0.0 | 0.0 | 0.00 | 0.00 | 0.00 | 92 | 1016.6 |
| 20260508081517 | 6 | 214 | 0.0 | 0.0 | 0.00 | 0.00 | 0.00 | 92 | 1016.6 |
| 20260508080047 | 6 | 214 | 0.0 | 0.0 | 0.00 | 0.00 | 0.00 | 92 | 1016.7 |
| 20260508074535 | 6 | 214 | 0.0 | 0.0 | 0.00 | 0.00 | 0.00 | 92 | 1016.8 |
| 20260508073031 | 6 | 214 | 0.0 | 0.0 | 0.00 | 0.00 | 0.00 | 92 | 1016.6 |
| 20260508071535 | 6 | 214 | 0.0 | 0.0 | 0.00 | 0.00 | 0.00 | 92 | 1016.9 |
| 20260508070048 | 6 | 214 | 0.0 | 0.0 | 0.00 | 0.00 | 0.00 | 91 | 1016.9 |
| 20260508064532 | 6 | 214 | 0.0 | 0.0 | 0.00 | 0.00 | 0.00 | 91 | 1017.0 |
| 20260508063036 | 6 | 214 | 0.0 | 0.0 | 0.00 | 0.00 | 0.00 | 91 | 1017.1 |
| 20260508061539 | 6 | 214 | 0.0 | 0.0 | 0.00 | 0.00 | 0.00 | 91 | 1017.0 |
| 20260508060044 | 6 | 214 | 0.0 | 0.0 | 0.00 | 0.00 | 0.00 | 91 | 1017.2 |
| 20260508054527 | 7 | 214 | 0.0 | 0.0 | 0.00 | 0.00 | 0.00 | 91 | 1017.3 |
| 20260508053031 | 7 | 214 | 0.0 | 0.0 | 0.00 | 0.00 | 0.00 | 91 | 1017.4 |
| 20260508051506 | 7 | 214 | 0.0 | 1.6 | 0.00 | 0.00 | 0.00 | 90 | 1017.4 |
| 20260508050124 | 7 | 214 | 0.0 | 0.0 | 0.00 | 0.00 | 0.00 | 90 | 1017.4 |
| 20260508044507 | 7 | 214 | 0.0 | 0.0 | 0.00 | 0.00 | 0.00 | 89 | 1017.3 |
| 20260508043015 | 8 | 214 | 0.0 | 0.0 | 0.00 | 0.00 | 0.00 | 88 | 1017.3 |
| 20260508041519 | 8 | 214 | 0.0 | 0.0 | 0.00 | 0.00 | 0.00 | 87 | 1017.4 |
| 20260508040008 | 9 | 214 | 0.0 | 1.6 | 0.00 | 0.00 | 0.00 | 87 | 1017.3 |
| 20260508034512 | 10 | 214 | 0.0 | 0.0 | 0.00 | 0.00 | 0.00 | 86 | 1017.4 |
| 20260508033017 | 10 | 214 | 0.0 | 3.2 | 0.00 | 0.00 | 0.00 | 85 | 1017.5 |
| 20260508031514 | 10 | 238 | 0.0 | 4.8 | 0.00 | 0.00 | 0.00 | 84 | 1017.4 |
| 20260508030125 | 10 | 213 | 1.6 | 6.4 | 0.00 | 0.00 | 0.00 | 83 | 1017.5 |
| 20260508024505 | 10 | 219 | 3.2 | 8.0 | 0.00 | 0.00 | 0.00 | 84 | 1017.5 |
| 20260508023016 | 10 | 204 | 3.2 | 12.9 | 0.00 | 0.00 | 0.00 | 84 | 1017.7 |
| 20260508021514 | 10 | 231 | 3.2 | 9.7 | 0.00 | 0.00 | 0.00 | 84 | 1017.9 |
| 20260508020121 | 10 | 197 | 4.8 | 11.3 | 0.00 | 0.00 | 0.00 | 84 | 1018.0 |
| 20260508014506 | 11 | 220 | 3.2 | 14.5 | 0.00 | 0.00 | 0.00 | 82 | 1018.1 |
| 20260508013006 | 11 | 210 | 6.4 | 12.9 | 0.00 | 0.00 | 0.00 | 80 | 1018.2 |
| 20260508011509 | 12 | 203 | 6.4 | 16.1 | 0.00 | 0.00 | 0.00 | 82 | 1018.3 |
| 20260508010117 | 12 | 225 | 8.0 | 14.5 | 0.00 | 0.00 | 0.00 | 81 | 1018.3 |
| 20260508004517 | 12 | 211 | 4.8 | 12.9 | 0.00 | 0.00 | 0.00 | 79 | 1018.3 |
| 20260508003019 | 13 | 200 | 4.8 | 11.3 | 0.00 | 0.00 | 0.00 | 75 | 1018.4 |
| 20260508001526 | 15 | 217 | 4.8 | 9.7 | 0.00 | 0.00 | 0.00 | 71 | 1018.3 |
| 20260508000004 | 15 | 239 | 1.6 | 6.4 | 0.00 | 0.00 | 0.00 | 71 | 1018.3 |
| 20260507234508 | 15 | 230 | 3.2 | 6.4 | 0.00 | 0.00 | 0.00 | 72 | 1018.4 |
| 20260507233011 | 15 | 339 | 1.6 | 4.8 | 0.00 | 0.00 | 0.00 | 73 | 1018.4 |
| 20260507231515 | 15 | 323 | 3.2 | 8.0 | 0.00 | 0.00 | 0.00 | 73 | 1018.5 |
| 20260507230121 | 16 | 301 | 3.2 | 9.7 | 0.00 | 0.00 | 0.00 | 73 | 1018.6 |
| 20260507224503 | 16 | 347 | 3.2 | 9.7 | 0.00 | 0.00 | 0.00 | 70 | 1018.7 |
| 20260507223007 | 16 | 342 | 1.6 | 6.4 | 0.00 | 0.00 | 0.00 | 71 | 1018.8 |
| 20260507221524 | 16 | 355 | 3.2 | 8.0 | 0.00 | 0.00 | 0.00 | 71 | 1019.0 |
| 20260507220004 | 16 | 344 | 1.6 | 8.0 | 0.00 | 0.00 | 0.00 | 71 | 1019.1 |
| 20260507214508 | 16 | 326 | 0.0 | 8.0 | 0.00 | 0.00 | 0.00 | 72 | 1019.2 |
| 20260507213123 | 15 | 342 | 1.6 | 6.4 | 0.00 | 0.00 | 0.00 | 72 | 1019.4 |
| 20260507211530 | 15 | 353 | 1.6 | 9.7 | 0.00 | 0.00 | 0.00 | 71 | 1019.6 |
| 20260507210042 | 15 | 276 | 1.6 | 8.0 | 0.00 | 0.00 | 0.00 | 74 | 1019.7 |
| 20260507204527 | 15 | 221 | 3.2 | 11.3 | 0.00 | 0.00 | 0.00 | 70 | 1019.9 |
| 20260507203031 | 15 | 240 | 1.6 | 11.3 | 0.00 | 0.00 | 0.00 | 70 | 1020.1 |
| 20260507201537 | 15 | 252 | 3.2 | 9.7 | 0.00 | 0.00 | 0.00 | 74 | 1020.3 |
| 20260507200034 | 15 | 238 | 1.6 | 12.9 | 0.00 | 0.00 | 0.00 | 73 | 1020.4 |
| 20260507194523 | 15 | 207 | 0.0 | 9.7 | 0.00 | 0.00 | 0.00 | 72 | 1020.5 |
| 20260507193134 | 14 | 240 | 1.6 | 8.0 | 0.00 | 0.00 | 0.00 | 75 | 1020.6 |
| 20260507191542 | 13 | 221 | 0.0 | 11.3 | 0.00 | 0.00 | 0.00 | 76 | 1020.7 |
| 20260507190032 | 13 | 235 | 3.2 | 9.7 | 0.00 | 0.00 | 0.00 | 78 | 1020.8 |
| 20260507184527 | 13 | 228 | 3.2 | 11.3 | 0.00 | 0.00 | 0.00 | 75 | 1020.9 |
| 20260507183041 | 13 | 199 | 4.8 | 11.3 | 0.00 | 0.00 | 0.00 | 72 | 1020.9 |
| 20260507181551 | 13 | 200 | 1.6 | 11.3 | 0.00 | 0.00 | 0.00 | 75 | 1020.9 |
| 20260507180056 | 12 | 236 | 3.2 | 12.9 | 0.00 | 0.00 | 0.00 | 77 | 1020.8 |
| 20260507174541 | 12 | 193 | 4.8 | 11.3 | 0.00 | 0.00 | 0.00 | 74 | 1020.8 |
| 20260507173103 | 12 | 233 | 4.8 | 11.3 | 0.00 | 0.00 | 0.00 | 76 | 1021.0 |
| 20260507171550 | 12 | 259 | 4.8 | 14.5 | 0.00 | 0.00 | 0.00 | 75 | 1021.0 |
| 20260507170054 | 12 | 181 | 6.4 | 14.5 | 0.00 | 0.00 | 0.00 | 77 | 1020.9 |
| 20260507164541 | 11 | 183 | 6.4 | 14.5 | 0.00 | 0.00 | 0.00 | 76 | 1021.0 |
| 20260507163044 | 11 | 199 | 6.4 | 16.1 | 0.00 | 0.00 | 0.00 | 76 | 1021.1 |
| 20260507161617 | 11 | 238 | 3.2 | 12.9 | 0.00 | 0.00 | 0.00 | 77 | 1021.1 |
| 20260507160120 | 10 | 214 | 1.6 | 11.3 | 0.00 | 0.00 | 0.00 | 79 | 1021.2 |
| 20260507154552 | 10 | 187 | 1.6 | 6.4 | 0.00 | 0.00 | 0.00 | 79 | 1021.3 |
| 20260507153056 | 10 | 204 | 4.8 | 8.0 | 0.00 | 0.00 | 0.00 | 82 | 1021.4 |
| 20260507151600 | 10 | 172 | 4.8 | 8.0 | 0.00 | 0.00 | 0.00 | 84 | 1021.4 |
| 20260507144601 | 9 | 212 | 0.0 | 3.2 | 0.00 | 0.00 | 0.00 | 88 | 1021.4 |
| 20260507143108 | 8 | 212 | 0.0 | 3.2 | 0.00 | 0.00 | 0.00 | 90 | 1021.3 |
| 20260507141625 | 8 | 192 | 0.0 | 0.0 | 0.00 | 0.00 | 0.00 | 91 | 1021.3 |
| 20260507140112 | 8 | 192 | 0.0 | 0.0 | 0.00 | 0.00 | 0.00 | 92 | 1021.2 |
| 20260507134601 | 8 | 192 | 0.0 | 0.0 | 0.00 | 0.00 | 0.00 | 92 | 1021.1 |
| 20260507133055 | 7 | 192 | 0.0 | 0.0 | 0.00 | 0.00 | 0.00 | 92 | 1021.0 |
| 20260507131601 | 7 | 192 | 0.0 | 1.6 | 0.00 | 0.00 | 0.00 | 92 | 1021.1 |
| 20260507130112 | 7 | 192 | 0.0 | 3.2 | 0.00 | 0.00 | 0.00 | 92 | 1021.1 |
| 20260507124600 | 6 | 188 | 0.0 | 1.6 | 0.00 | 0.00 | 0.00 | 92 | 1021.0 |
| 20260507123101 | 6 | 188 | 0.0 | 1.6 | 0.00 | 0.00 | 0.00 | 92 | 1021.2 |
| 20260507121508 | 6 | 186 | 0.0 | 4.8 | 0.00 | 0.00 | 0.00 | 92 | 1021.2 |
| 20260507120116 | 6 | 198 | 1.6 | 3.2 | 0.00 | 0.00 | 0.00 | 91 | 1021.2 |
| 20260507114605 | 6 | 224 | 0.0 | 0.0 | 0.00 | 0.00 | 0.00 | 90 | 1021.4 |
| 20260507113004 | 6 | 224 | 0.0 | 0.0 | 0.00 | 0.00 | 0.00 | 89 | 1021.4 |
| 20260507111509 | 7 | 224 | 0.0 | 0.0 | 0.00 | 0.00 | 0.00 | 89 | 1021.2 |
| 20260507110121 | 7 | 224 | 0.0 | 4.8 | 0.00 | 0.00 | 0.00 | 89 | 1021.3 |
| 20260507104505 | 7 | 204 | 0.0 | 4.8 | 0.00 | 0.00 | 0.00 | 90 | 1021.3 |
| 20260507103007 | 7 | 193 | 0.0 | 3.2 | 0.00 | 0.00 | 0.00 | 90 | 1021.5 |
| 20260507101516 | 8 | 200 | 0.0 | 3.2 | 0.00 | 0.00 | 0.00 | 89 | 1021.4 |
| 20260507100119 | 8 | 200 | 0.0 | 1.6 | 0.00 | 0.00 | 0.00 | 88 | 1021.4 |
| 20260507094604 | 8 | 181 | 0.0 | 3.2 | 0.00 | 0.00 | 0.00 | 88 | 1021.5 |
| 20260507093004 | 9 | 224 | 3.2 | 6.4 | 0.00 | 0.00 | 0.00 | 88 | 1021.5 |
| 20260507091508 | 9 | 186 | 0.0 | 4.8 | 0.00 | 0.00 | 0.00 | 88 | 1021.6 |
| 20260507090114 | 9 | 193 | 3.2 | 8.0 | 0.00 | 0.00 | 0.00 | 88 | 1021.7 |
| 20260507084601 | 9 | 190 | 1.6 | 4.8 | 0.00 | 0.00 | 0.00 | 88 | 1021.6 |
| 20260507083102 | 10 | 183 | 1.6 | 9.7 | 0.00 | 0.00 | 0.00 | 87 | 1021.5 |